Weather History for Fremont, MI

Change the Weather History Date:

Friday, July 6, 2012

  Actual Average (KMKG) Record (KMKG)
Temperature  
Mean Temperature 84 °F 71 °F  
Max Temperature 98 °F 80 °F 99 °F (2012)
Min Temperature 70 °F 61 °F 41 °F (1983)
Degree Days  
Heating Degree Days 0 0  
Month to date heating degree days 4  
Since 1 June heating degree days 70  
Since 1 July heating degree days 4  
Cooling Degree Days 19 6  
Month to date cooling degree days 36  
Year to date cooling degree days 170  
Since 1 June cooling degree days 141  
Growing Degree Days 34 (Base 50)    
Moisture  
Dew Point 71 °F    
Average Humidity 68    
Maximum Humidity 98    
Minimum Humidity 37    
Precipitation  
Precipitation 0.00 in 0.07 in 0.70 in (1927)
Month to date precipitation 0.44  
Year to date precipitation 15.26  
Snow  
Snow 0.00 in 0.00 in - ()
Month to date snowfall 0.0  
Since 1 June snowfall 0.0  
Since 1 July snowfall 0.0  
Snow Depth -    
Sea Level Pressure  
Sea Level Pressure 29.94 in    
Wind  
Wind Speed 2 mph (NW)    
Max Wind Speed 10 mph    
Max Gust Speed -    
Visibility 10 miles    
Events      
T = Trace of Precipitation, MM = Missing Value Source: NWS Daily Summary

Daily Weather History Graph

Daily Weather History Graph

Search for Another Location

Airport:

Trip Planner

Search our weather history database for the weather conditions in past years. The results will help you decide how hot, cold, wet, or windy it might be!

Date:

Astronomy

Jul. 06, 2012 Rise Set
Actual Time 6:10 AM EDT 9:26 PM EDT
Civil Twilight 5:35 AM EDT 10:02 PM EDT
Nautical Twilight 4:49 AM EDT 10:47 PM EDT
Astronomical Twilight 3:53 AM EDT 11:43 PM EDT
Moon 11:07 PM EDT (7/6) 9:36 AM EDT (7/6)
Length of Visible Light 16h 26m
Length of Day
15h 16m
Waning Gibbous, 89% of the Moon is Illuminated
Jul 6
Waning Gibbous
Jul 10
Last Quarter
Jul 19
New
Jul 26
First Quarter
Aug 1
Full

Hourly Weather History & Observations

Time (EDT) Temp. Heat Index Dew Point Humidity Pressure Visibility Wind Dir Wind Speed Gust Speed Precip Events Conditions
12:15 AM 75.4 °F - 69.3 °F 81% 29.92 in 10.0 mi Calm Calm - N/A   Clear
12:36 AM 75.6 °F - 70.0 °F 83% 29.92 in 10.0 mi Calm Calm - N/A   Clear
12:56 AM 74.7 °F - 70.3 °F 86% 29.92 in 10.0 mi Calm Calm - N/A   Clear
1:16 AM 74.3 °F - 70.0 °F 86% 29.92 in 10.0 mi Calm Calm - N/A   Clear
1:36 AM 73.4 °F - 70.3 °F 90% 29.92 in 10.0 mi Calm Calm - N/A   Clear
1:55 AM 73.6 °F - 70.2 °F 89% 29.92 in 10.0 mi Calm Calm - N/A   Clear
2:16 AM 73.0 °F - 70.3 °F 91% 29.92 in 10.0 mi Calm Calm - N/A   Clear
2:35 AM 72.7 °F - 70.9 °F 94% 29.92 in 10.0 mi Calm Calm - N/A   Clear
2:56 AM 73.2 °F - 70.7 °F 92% 29.93 in 10.0 mi Calm Calm - N/A   Clear
3:15 AM 72.3 °F - 71.1 °F 96% 29.94 in 10.0 mi Calm Calm - N/A   Clear
3:36 AM 73.4 °F - 70.3 °F 90% 29.93 in 10.0 mi Calm Calm - N/A   Clear
3:55 AM 72.1 °F - 70.5 °F 95% 29.94 in 10.0 mi Calm Calm - N/A   Clear
4:16 AM 71.8 °F - 70.9 °F 97% 29.94 in 10.0 mi Calm Calm - N/A   Clear
4:35 AM 72.1 °F - 70.9 °F 96% 29.94 in 10.0 mi Calm Calm - N/A   Clear
4:56 AM 73.2 °F - 71.4 °F 94% 29.94 in 10.0 mi Calm Calm - N/A   Clear
5:15 AM 72.3 °F - 70.5 °F 94% 29.94 in 10.0 mi Calm Calm - N/A   Clear
5:36 AM 71.6 °F - 70.2 °F 95% 29.94 in 10.0 mi Calm Calm - N/A   Clear
5:55 AM 70.7 °F - 69.4 °F 96% 29.95 in 10.0 mi Calm Calm - N/A   Clear
6:16 AM 70.7 °F - 70.2 °F 98% 29.96 in 7.0 mi Calm Calm - N/A   Clear
6:36 AM 70.7 °F - 69.8 °F 97% 29.96 in 7.0 mi Calm Calm - N/A   Scattered Clouds
6:55 AM 71.1 °F - 70.3 °F 98% 29.97 in 7.0 mi Calm Calm - N/A   Clear
7:16 AM 73.6 °F - 72.3 °F 96% 29.97 in 7.0 mi Calm Calm - N/A   Scattered Clouds
7:36 AM 75.6 °F - 72.9 °F 91% 29.96 in 10.0 mi Calm Calm - N/A   Clear
7:56 AM 77.0 °F - 72.7 °F 86% 29.96 in 10.0 mi ENE 3.5 mph - N/A   Clear
8:16 AM 78.8 °F - 71.6 °F 78% 29.97 in 10.0 mi ENE 3.5 mph - N/A   Scattered Clouds
8:35 AM 80.1 °F 83.6 °F 71.1 °F 74% 29.97 in 10.0 mi NE 3.5 mph - N/A   Scattered Clouds
8:56 AM 81.5 °F 85.7 °F 71.2 °F 71% 29.97 in 10.0 mi ENE 4.6 mph - N/A   Scattered Clouds
9:15 AM 82.8 °F 87.2 °F 70.7 °F 67% 29.97 in 10.0 mi ENE 5.8 mph - N/A   Clear
9:36 AM 83.5 °F 88.2 °F 71.2 °F 66% 29.97 in 10.0 mi ENE 4.6 mph - N/A   Clear
9:56 AM 84.7 °F 90.4 °F 72.0 °F 65% 29.97 in 10.0 mi East 6.9 mph - N/A   Clear
10:15 AM 85.1 °F 90.8 °F 71.8 °F 64% 29.97 in 10.0 mi NE 5.8 mph - N/A   Clear
10:36 AM 86.0 °F 91.5 °F 71.1 °F 61% 29.98 in 10.0 mi East 9.2 mph - N/A   Clear
10:55 AM 86.9 °F 92.9 °F 71.4 °F 60% 29.98 in 10.0 mi ENE 4.6 mph - N/A   Clear
11:16 AM 87.8 °F 93.4 °F 70.7 °F 57% 29.98 in 10.0 mi ENE 5.8 mph - N/A   Clear
11:35 AM 88.9 °F 96.1 °F 72.3 °F 58% 29.98 in 10.0 mi NE 5.8 mph - N/A   Clear
11:56 AM 90.5 °F 98.1 °F 72.1 °F 55% 29.98 in 10.0 mi East 3.5 mph - N/A   Clear
12:15 PM 91.2 °F 98.5 °F 71.8 °F 53% 29.98 in 10.0 mi East 4.6 mph - N/A   Clear
12:36 PM 92.1 °F 99.4 °F 71.8 °F 51% 29.98 in 10.0 mi SE 6.9 mph - N/A   Clear
12:55 PM 93.6 °F 100.7 °F 71.2 °F 48% 29.98 in 10.0 mi SSW 3.5 mph - N/A   Clear
1:16 PM 94.8 °F 100.9 °F 69.8 °F 44% 29.98 in 10.0 mi SSW 6.9 mph - N/A   Clear
1:35 PM 94.8 °F 100.3 °F 69.4 °F 43% 29.98 in 10.0 mi SSW 8.1 mph - N/A   Clear
1:56 PM 95.4 °F 101.4 °F 69.6 °F 43% 29.97 in 10.0 mi Calm Calm - N/A   Clear
2:16 PM 96.8 °F 103.1 °F 69.4 °F 41% 29.96 in 10.0 mi West 5.8 mph - N/A   Scattered Clouds
2:35 PM 97.9 °F 104.7 °F 69.8 °F 40% 29.95 in 10.0 mi SSW 4.6 mph - N/A   Mostly Cloudy
2:56 PM 97.2 °F 101.9 °F 68.0 °F 38% 29.95 in 10.0 mi WSW 5.8 mph - N/A   Scattered Clouds
3:16 PM 97.9 °F 103.3 °F 68.5 °F 38% 29.95 in 10.0 mi West 6.9 mph - N/A   Clear
3:35 PM 98.1 °F 103.0 °F 67.8 °F 37% 29.95 in 10.0 mi West 8.1 mph - N/A   Clear
3:56 PM 98.1 °F 103.0 °F 67.8 °F 37% 29.94 in 10.0 mi West 8.1 mph - N/A   Clear
4:15 PM 97.7 °F 103.6 °F 68.5 °F 39% 29.93 in 10.0 mi West 8.1 mph - N/A   Clear
4:36 PM 97.9 °F 104.0 °F 68.7 °F 39% 29.94 in 10.0 mi West 9.2 mph - N/A   Clear
4:56 PM 97.5 °F 103.3 °F 68.7 °F 39% 29.93 in 10.0 mi West 10.4 mph - N/A   Clear
5:15 PM 96.6 °F 102.7 °F 69.6 °F 41% 29.93 in 10.0 mi West 10.4 mph - N/A   Clear
5:36 PM 95.7 °F 101.5 °F 69.1 °F 42% 29.92 in 10.0 mi West 8.1 mph - N/A   Clear
5:55 PM 95.5 °F 101.2 °F 69.3 °F 42% 29.92 in 10.0 mi West 8.1 mph - N/A   Clear
6:16 PM 95.4 °F 101.4 °F 69.4 °F 43% 29.92 in 10.0 mi WNW 6.9 mph - N/A   Clear
6:35 PM 95.0 °F 101.3 °F 69.8 °F 44% 29.92 in 10.0 mi WNW 8.1 mph - N/A   Clear
6:56 PM 94.6 °F 101.1 °F 70.0 °F 45% 29.92 in 10.0 mi WNW 6.9 mph - N/A   Clear
7:16 PM 93.4 °F 99.7 °F 70.2 °F 47% 29.92 in 10.0 mi West 8.1 mph - N/A   Clear
7:35 PM 92.8 °F 99.7 °F 71.1 °F 49% 29.93 in 10.0 mi West 5.8 mph - N/A   Clear
7:56 PM 91.2 °F 99.1 °F 72.3 °F 54% 29.93 in 10.0 mi WNW 3.5 mph - N/A   Clear
8:15 PM 90.3 °F 98.2 °F 72.7 °F 56% 29.93 in 10.0 mi Calm Calm - N/A   Clear
8:36 PM 89.1 °F 98.5 °F 74.5 °F 62% 29.93 in 10.0 mi Calm Calm - N/A   Clear
8:55 PM 88.3 °F 96.9 °F 73.9 °F 62% 29.93 in 10.0 mi NNW 3.5 mph - N/A   Clear
9:16 PM 87.4 °F 94.0 °F 72.0 °F 60% 29.93 in 10.0 mi North 3.5 mph - N/A   Clear
9:36 PM 86.0 °F 92.6 °F 72.7 °F 64% 29.92 in 10.0 mi Calm Calm - N/A   Clear
9:55 PM 84.4 °F 91.0 °F 73.4 °F 69% 29.92 in 10.0 mi Calm Calm - N/A   Clear
10:16 PM 81.3 °F 87.0 °F 74.3 °F 79% 29.92 in 10.0 mi ESE 3.5 mph - N/A   Clear
10:35 PM 82.9 °F 89.4 °F 73.8 °F 74% 29.92 in 10.0 mi ESE 3.5 mph - N/A   Clear
10:56 PM 80.8 °F 86.1 °F 74.3 °F 81% 29.92 in 10.0 mi Calm Calm - N/A   Clear
11:15 PM 79.5 °F - 74.7 °F 85% 29.92 in 10.0 mi Calm Calm - N/A   Clear
11:36 PM 80.2 °F 85.2 °F 74.5 °F 83% 29.92 in 10.0 mi Calm Calm - N/A   Clear
11:55 PM 79.0 °F - 74.3 °F 85% 29.92 in 10.0 mi Calm Calm - N/A   Clear